AirNav   TITAN Aviation Fuels
 
 476 users online  

64MI Ti Heliport
Utica, Michigan, USA

GOING TO UTICA?


FAA INFORMATION EFFECTIVE 17 JUNE 2021

Location

FAA Identifier: 64MI
Lat/Long: 42-39-53.0000N 083-00-44.0000W
42-39.883333N 083-00.733333W
42.6647222,-83.0122222
(estimated)
Elevation: 680 ft. / 207 m (estimated)
Variation: 07W (1995)
From city: 2 miles NE of UTICA, MI
Time zone: UTC -4 (UTC -5 during Standard Time)
Zip code: 48315

Heliport Operations

Heliport use: Private use. Permission required prior to landing
Activation date: 08/1998
Control tower: no
ARTCC: CLEVELAND CENTER
FSS: LANSING FLIGHT SERVICE STATION
Attendance: MON-FRI 0700-1700
Segmented circle: no

Heliport Communications

WX AWOS-3 at VLL (10 nm SW): 119.475 (248-288-4649)
WX ASOS at DET (15 nm S): PHONE 313-371-9696
WX ASOS at PTK (18 nm W): 125.025 (248-886-8551)

Nearby radio navigation aids

VOR radial/distance  VOR name  Freq  Var
SVMr062/30.0SALEM VORTAC114.3003W
DXOr036/31.3DETROIT VOR/DME113.4006W
FNTr125/37.1FLINT VORTAC116.9006W

 
NDB name  Hdg/Dist  Freq  Var  ID
GROSSE ILE017/34.441907WRYS .-. -.-- ...

Heliport Services

Runway Information

Helipad H1

Dimensions: 12 x 12 ft. / 4 x 4 m
Surface: concrete
ROOFTOP.
Traffic pattern: leftleft

Heliport Ownership and Management from official FAA records

Ownership: Privately-owned
Owner: TI-COATING INC.
50500 CORPORATE DRIVE
UTICA, MI 48315
Phone (586) 726-1900
Manager: WILLIAM C ZICHICHI
50500 CORPORATE DRIVE
UTICA, MI 48315
Phone (586) 726-1900

Heliport Operational Statistics

Aircraft based on the field: 1
Helicopters: 1
    

Additional Remarks

A52-H1 12 FT POLE 20 FT N; 33 FT POWERLINE 100 FT E; 3 FT POWERLINE 200 FT S.
FOR CD CTC CLEVELAND ARTCC AT 440-774-0490.

Instrument Procedures

There are no published instrument procedures at 64MI.

Some nearby airports with instrument procedures:

57D - Ray Community Airport (7 nm NE)
D98 - Romeo State Airport (8 nm N)
KMTC - Selfridge Air National Guard Base (8 nm E)
KVLL - Oakland/Troy Airport (10 nm SW)
KDET - Coleman A Young Municipal Airport (15 nm S)
KPTK - Oakland County International Airport (18 nm W)
 
Loc | Ops | Rwys | IFR | FBO | Links
Com | Nav | Svcs | Stats | Notes
Area around 64MI (Ti Heliport)
 
Road maps at: MapQuest Bing Google
 
Aerial photo
No photo
 
Sectional chart

 
Airport distance calculator
Flying to Ti Heliport? Find the distance to fly.

From to 64MI

Sunrise and sunset
Times for 22-Jun-2021
 Local
(UTC-4)
 Zulu
(UTC)
Morning civil twilight05:2009:20
Sunrise05:5509:55
Sunset21:1301:13
Evening civil twilight21:4801:48

Current date and time
Zulu (UTC)  22-Jun-2021 06:17:41
Local (UTC-4)  22-Jun-2021 02:17:41
 
METAR
KMTC 
9nm E 
220556Z AUTO 30006KT 10SM SCT033 10/06 A2987 RMK AO2 SLP119 T00960063 10189 20096 51020
KVLL 
10nm SW 
220555Z AUTO 32005KT 10SM CLR 10/04 A2991 RMK AO2 T01010041 10181 20100 402510100
KDET 
16nm S 
220553Z 33007KT 10SM CLR 12/03 A2989 RMK AO2 SLPNO T01170033 10200 20117 51021
KPTK 
18nm W 
220553Z AUTO 31009KT 10SM CLR 09/04 A2988 RMK AO2 SLP118 T00940039 10172 20094 51014
TAF
KMTC 
9nm E 
220105Z 2201/2307 32010G15KT 9999 BKN060 QNH2973INS BECMG 2203/2204 31009KT 9999 FEW035 QNH2982INS BECMG 2219/2220 26007KT 9999 SCT060 QNH2996INS TX20/2220Z TN08/2209Z LAST NO AMDS AFT 2203 NEXT 2209
KDET 
16nm S 
220520Z 2206/2306 33013KT P6SM SCT070 FM220800 33005KT P6SM SKC FM221400 29007KT P6SM SCT060 FM221800 25009KT P6SM BKN060 FM230100 23004KT P6SM FEW070
KPTK 
18nm W 
220520Z 2206/2306 33013KT P6SM FEW030 FM220800 33005KT P6SM SKC FM221400 29007KT P6SM SCT060 FM221800 25009KT P6SM BKN060 FM230100 23004KT P6SM FEW070
NOTAMs
Click for the latest NOTAMs
NOTAMs are issued by the DoD/FAA and will open in a separate window not controlled by AirNav.

 

 
 

Would you like to see your business listed on this page?

 If your business provides an interesting product or service to pilots, flight crews, aircraft, or users of the Ti Heliport, you should consider listing it here.  To start the listing process, click on the button below
 
Add a business
 

Other Pages about Ti Heliport

Update a link
 
Copyright © AirNav, LLC. All rights reserved. Privacy Policy  Contact